Location: Allen Fire Department Station 4
(33.1073°N, 96.6988°W)
Time: 23:00:32
(UTC+00:00)

Cosmos 1763 Rocket - Pass Details

Date: 01 July 2022
Orbit: 732 x 780 km, 74.0° (Epoch: 18 August)

Event Time Altitude Azimuth Distance (km) Brightness Sun altitude
Exits shadow 08:21:25 40° 309° (NW) 1,103 4.3 -27.9°
Drops below altitude 10° 08:25:47 10° 2° (N) 2,309 6.7 -27.5°
Sets 08:28:18 0° 9° (N) 3,246 7.8 -27.2°
